• Processing (Info)

  • MPEC 2013-K28 : 2013 KZ1

    The following Minor Planet Electronic Circular may be linked-to from your own Web pages, but must not otherwise be redistributed electronically.

    A form allowing access to any MPEC is at the bottom of this page.


    Read MPEC 2013-K27 Read MPEC 2013-K29


    M.P.E.C. 2013-K28                                Issued 2013 May 20, 21:07 UT
    
         The Minor Planet Electronic Circulars contain information on unusual
             minor planets and routine data on comets.  They are published
       on behalf of Commission 20 of the International Astronomical Union by the
              Minor Planet Center, Smithsonian Astrophysical Observatory,
                              Cambridge, MA 02138, U.S.A.
    
                 Prepared using the Tamkin Foundation Computer Network
    
                                  MPC@CFA.HARVARD.EDU
                URL http://www.minorplanetcenter.net/    ISSN 1523-6714
    
                                       2013 KZ1
    
    Observations:
         K13K01Z* C2013 05 17.40629 16 11 20.11 -16 02 08.4          19.9 VuEK028G96
         K13K01Z  C2013 05 17.41284 16 11 19.32 -16 01 31.1          20.5 VuEK028G96
         K13K01Z  C2013 05 17.41934 16 11 18.56 -16 00 53.9          19.7 VuEK028G96
         K13K01Z  C2013 05 17.44667 16 11 15.27 -15 58 18.2          19.4 RtEK028H01
         K13K01Z  C2013 05 17.45071 16 11 14.89 -15 57 55.3          20.2 VuEK028G96
         K13K01Z  C2013 05 17.45179 16 11 14.67 -15 57 49.1          19.2 RtEK028H01
         K13K01Z  C2013 05 17.45196 16 11 14.74 -15 57 47.9          19.7 VuEK028G96
         K13K01Z  C2013 05 17.45321 16 11 14.56 -15 57 40.3          19.7 VuEK028G96
         K13K01Z  C2013 05 17.45444 16 11 14.46 -15 57 33.5          20.1 VuEK028G96
         K13K01Z  C2013 05 17.45647 16 11 14.15 -15 57 22.1          19.3 RtEK028H01
         K13K01Z  C2013 05 17.46153 16 11 13.53 -15 56 53.1          19.1 RtEK028H01
         K13K01Z  C2013 05 18.36129 16 09 34.23 -14 29 18.9          19.9 VuEK028G96
         K13K01Z  C2013 05 18.36380 16 09 33.87 -14 29 04.0          20.0 VuEK028G96
         K13K01Z  C2013 05 18.36507 16 09 33.73 -14 28 56.4          20.0 VuEK028G96
         K13K01Z  C2013 05 18.36634 16 09 33.58 -14 28 48.5          19.8 VuEK028G96
         K13K01Z  C2013 05 18.59668 16 09 07.63 -14 05 07.2          19.9 VoEK028E23
         K13K01Z  C2013 05 18.61057 16 09 05.92 -14 03 42.4          19.7 VoEK028E23
         K13K01Z  C2013 05 18.62446 16 09 04.11 -14 02 17.9                oEK028E23
         K13K01Z KC2013 05 19.97669 16 06 23.41 -11 40 43.5                qEK028J95
         K13K01Z KC2013 05 19.98469816 06 21.74 -11 39 10.9          20.3 VqEK028K91
         K13K01Z KC2013 05 19.98738816 06 21.40 -11 38 53.6          20.2 VqEK028K91
         K13K01Z KC2013 05 19.99006516 06 21.04 -11 38 35.9          20.0 VqEK028K91
         K13K01Z KC2013 05 19.99886 16 06 20.52 -11 38 17.7          19.7 RqEK028J95
         K13K01Z  C2013 05 20.27855 16 05 45.92 -11 07 25.0                oEK028711
         K13K01Z IC2013 05 20.28028 16 05 45.67 -11 07 13.3                oEK028711
         K13K01Z  C2013 05 20.28205 16 05 45.43 -11 07 01.3                oEK028711
         K13K01Z KC2013 05 20.28723 16 05 44.85 -11 06 28.3          19.4 RqEK028448
         K13K01Z KC2013 05 20.30633 16 05 42.22 -11 04 21.1          20.0 RqEK028448
         K13K01Z KC2013 05 20.32663 16 05 39.43 -11 02 05.3          20.2 RqEK028448
         K13K01Z QC2013 05 20.50096 16 05 18.80 -10 42 03.6          19.4 VqEK028E12
         K13K01Z QC2013 05 20.50585 16 05 18.14 -10 41 30.7          19.4 VqEK028E12
    
    Observer details:
    448 Desert Moon Observatory.  Observer B. L. Stevens.  0.3-m
        Schmidt-Cassegrain + CCD.
    711 McDonald Observatory.  Observers A. J. Riddle, J. G. Ries.  Measurer
        J. G. Ries.  2.1-m reflector + CCD + focal reducer.
    E12 Siding Spring Survey.  Observer R. H. McNaught.  Measurers A. Boattini,
        E. J. Christensen, A. R. Gibbs, A. D. Grauer, R. E. Hill, R. A. Kowalski,
        S. M. Larson, R. H. McNaught.  0.5-m Uppsala Schmidt + CCD.
    E23 Arcadia.  Observer A. Hidas.  0.35-m Schmidt-Cassegrain + CCD.
    G96 Mt. Lemmon Survey.  Observers E. J. Christensen, j. Christensen.
        Measurers A. Boattini, E. J. Christensen, A. R. Gibbs, A. D. Grauer,
        R. E. Hill, J. A. Johnson, R. A. Kowalski, S. M. Larson, R. H. McNaught,
        F. C. Shelly.  1.5-m reflector + CCD.
    H01 Magdalena Ridge Observatory, Socorro.  Observer W. H. Ryan.  2.4-m f/8.9
        reflector + CCD.
    J95 Great Shefford.  Observer P. Birtwhistle.  0.40-m f/6.0 Schmidt-Cassegrain
        + CCD.
    K91 Sutherland-LCOGT A.  Observers E. J. Christensen, S. M. Larson, T. Lister.
        Measurer T. Lister.  1.0-m f/8 Ritchey-Chretien + CCD.
    
    Orbital elements:
    2013 KZ1                                            PHA, Earth MOID = 0.0313 AU
    Epoch 2013 Apr. 18.0 TT = JDT 2456400.5                 MPC
    M 301.96475              (2000.0)            P               Q
    n   0.50286645     Peri.  104.56963     +0.84119416     +0.35730034
    a   1.5661533      Node   236.12256     -0.42838577     +0.89837534
    e   0.5074875      Incl.   29.26575     +0.32996668     +0.25545686
    P   1.96           H   21.5           G   0.15           U   8
    Residuals in seconds of arc
    130517 G96  0.1+  0.0     130518 G96  0.3+  0.1+    130519 J95  0.2+  0.4+
    130517 G96  0.1-  0.0     130518 G96  0.4-  0.1-    130520 711  0.2+  0.1-
    130517 G96  0.0   0.1+    130518 G96  0.1-  0.1-    130520 711  0.0   0.1+
    130517 H01  0.3-  0.0     130518 G96  0.0   0.2+    130520 711  0.0   0.3+
    130517 G96  0.3+  0.4-    130518 E23  0.0   0.2-    130520 448  0.6+  0.5-
    130517 H01  0.3-  0.2-    130518 E23  0.7+  0.3+    130520 448  0.3+  0.4-
    130517 G96  0.2+  0.2-    130518 E23  0.0   0.3+    130520 448  0.1+  0.1+
    130517 G96  0.3-  0.3+    130519 J95  0.2-  0.3-    130520 E12  0.2-  0.0
    130517 G96  0.3+  0.0     130519 K91  0.2-  0.1+    130520 E12  0.1-  0.1+
    130517 H01  0.0   0.0     130519 K91  0.1+  0.3-
    130517 H01  0.5-  0.1+    130519 K91  0.1+  0.1-
    
    Ephemeris:
    2013 KZ1                 a,e,i = 1.57, 0.51, 29                  q = 0.7714
    Date    TT    R. A. (2000) Decl.     Delta      r     Elong.  Phase     V
    2013 04 20    16 30 30.8 -36 59 06   0.6172  1.5112   136.1    27.4    22.6
    ...
    2013 05 05    16 27 00.8 -29 48 20   0.4228  1.3998   153.6    18.7    21.3
    ...
    2013 05 13    16 18 26.5 -22 09 01   0.3355  1.3380   165.6    10.8    20.4
    ...
    2013 05 19    16 08 20.7 -13 24 06   0.2816  1.2907   171.2     6.9    19.8
    2013 05 20    16 06 20.3 -11 37 47   0.2738  1.2827   170.5     7.5    19.8
    2013 05 21    16 04 14.2 -09 45 40   0.2665  1.2748   169.1     8.6    19.7
    ...
    2013 05 27    15 49 34.4 +03 27 45   0.2321  1.2267   154.5    20.8    19.8
    ...
    2013 06 04    15 24 15.2 +24 40 45   0.2162  1.1620   128.7    42.9    20.2
    ...
    2013 06 19    14 16 19.4 +56 54 29   0.2669  1.0416    88.0    77.1    21.4
    
    A. U. Tomatic                (C) Copyright 2013 MPC           M.P.E.C. 2013-K28
    

    Read MPEC 2013-K27 Read MPEC 2013-K29


    MPEC number:

    Enter an MPEC number in one of the following forms:

    • 1997-B01 (the full form)
    • J97B01 (the packed version of the full form)
    • B01 (the abbreviated form)